Home   Weather   Boca Raton   Past weeks

Flag for USA Past Weather in Boca Raton, Florida, USA — Yesterday and Last 2 Weeks

Now
77 °F

Passing clouds.


Feels Like: 78 °F
Forecast: 75 / 81 °F
Wind: 9 mph from South

Location: Boca Raton Airport

Current Time: Dec 5, 2016 at 7:52:03 am

Latest Report: Dec 5, 2016 at 6:47 am


Visibility: 10 mi

Pressure: 30.02 "Hg

Humidity: 83%

Dew Point: 72 °F

Location of Boca RatonLocation

Past Weather in Boca Raton — Graph

°F

Boca Raton Temperature Yesterday

Maximum temperature yesterday: 81 °F (at 12:54 pm)
Minimum temperature yesterday: 75 °F (at 6:47 am)
Average temperature yesterday: 77 °F

High & Low Weather Summary for the Past Weeks

 TemperatureHumidityPressure
High84 °F (Dec 1, 11:56 am)94% (Nov 26, 6:52 am)30.23 "Hg (Nov 26, 6:52 am)
Low55 °F (Nov 21, 6:47 am)27% (Nov 21, 3:47 pm)29.93 "Hg (Dec 1, 2:58 pm)
Average76 °F66%30.08 "Hg
* Reported Nov 20 6:47 am — Dec 5 6:47 am, Boca Raton, Weather by CustomWeather, © 2016

Note: Actual official high and low records may vary slightly from our data, if they occured in-between our weather recording intervals... More about our weather records

Advertising

Boca Raton Weather History for the Previous 24 Hours

Scroll right to see more
 ConditionsComfort  
Time TempWeatherWind HumidityBarometerVisibility
6:47 am
Mon, Dec 5
77 °FPassing clouds.9 mph83%30.02 "Hg10 mi
10:47 pm
Sun, Dec 4
77 °FPartly cloudy.10 mph79%30.05 "Hg10 mi
9:47 pm77 °FPartly cloudy.9 mph79%30.07 "Hg10 mi
8:47 pm77 °FPassing clouds.9 mph79%30.06 "Hg10 mi
7:47 pm77 °FPassing clouds.9 mph74%30.05 "Hg10 mi
6:47 pm77 °FPassing clouds.9 mph79%30.04 "Hg10 mi
5:47 pm77 °FPassing clouds.12 mph79%30.04 "Hg10 mi
4:47 pm77 °FScattered clouds.17 mph79%30.03 "Hg10 mi
3:50 pm77 °FPartly sunny.9 mph44%30.03 "Hg10 mi
2:53 pm79 °FScattered clouds.17 mph74%30.02 "Hg10 mi
1:55 pm79 °FScattered clouds.17 mph70%30.03 "Hg10 mi
12:54 pm81 °FScattered clouds.17 mph66%30.05 "Hg10 mi
11:58 am79 °FBroken clouds.17 mph70%30.08 "Hg10 mi
10:58 am75 °FPartly sunny.13 mph78%30.10 "Hg10 mi
9:55 am77 °FMostly cloudy.12 mph74%30.11 "Hg10 mi
8:47 am75 °FMostly cloudy.10 mph74%30.08 "Hg10 mi
7:47 am75 °FBroken clouds.14 mph74%30.07 "Hg10 mi
Weather by CustomWeather, © 2016

See weather overviewHow to use our weather pages